User: anonymous   Login
Location: Unspecified
(0.0000°N, 0.0000°E)
Time: 20:28:54
(UTC+00:00)
Language:

COSMOS 2366 - Orbit

View from above orbital plane
View from above orbital plane
View from above satellite
View from above satellite

Ground track
Ground track

The orbit data is extracted from the following two-line orbital elements,

1 25892U 99045A   18174.85211230  .00000023  00000-0  82909-5 0  9994
2 25892  82.9294 126.1803 0031035 199.6861 189.1160 13.74456588944458
Epoch (UTC): 23 June 2018 20:27:02
Eccentricity: 0.0031035
inclination: 82.9294°
perigee height: 961 km
apogee height: 1006 km
right ascension of ascending node: 126.1803°
argument of perigee: 199.6861°
revolutions per day: 13.74456588
mean anomaly at epoch: 189.1160°
orbit number at epoch: 94445

The dashed part of the orbit path shows where the satellite is in the earth's shadow,  

DLR